Location: Bühlhof
(48.7849°N, 8.6361°E)
Time: 00:29:52
(UTC+00:00)

COSMO-SKYMED 1 - Pass Details

Date: 19 January 2026
Orbit: 577 x 579 km, 97.9° (Epoch: 17 February)

Event Time Altitude Azimuth Distance (km) Brightness Sun altitude
Exits shadow 17:41:19 16° 26° (NNE) 1,555 4.2 -15.9°
Maximum altitude 17:44:28 52° 100° (E) 721 2.5 -16.4°
Drops below altitude 10° 17:48:28 10° 178° (S) 1,886 5.1 -17.0°
Sets 17:50:38 0° 183° (S) 2,779 6.1 -17.4°
